#timestamp,LO_Frequency,Hit,StdDev 
1512493215.7,286047001.8,N
1512493235.5,286047002.6,N
1512493255.3,286046998.9,N
1512493275.1,286046995.3,N
1512493295.9,286046995.0,N
1512493315.7,286047000.4,N
1512493335.5,286047006.0,N
1512493355.4,286047003.8,N
1512493375.2,286047002.4,N
1512493395.0,286046996.9,N
1512493395.9,286046996.9,N
1512493415.8,286046995.7,N
1512493435.6,286046993.7,N
1512493455.4,286046998.8,N
1512493475.3,286046998.8,N
1512493495.1,286047001.1,N
1512493496.0,286047001.1,N
1512493515.8,286046999.6,N
1512493535.7,286046999.0,N
1512493555.5,286046997.7,N
1512493575.3,286046994.9,N
1512493595.2,286046996.1,N
1512493615.9,286046990.2,N
1512493635.7,286046990.1,N
1512493655.5,286046992.0,N
1512493675.4,286046994.4,N
1512493695.2,286046995.6,N
1512493715.0,286046997.9,N
1512493715.9,286046997.9,N
1512493735.8,286046995.1,N
1512493755.6,286046993.9,N
1512493775.4,286046992.4,N
1512493795.3,286046991.4,N
1512493815.1,286046991.6,N
1512493816.0,286046991.6,N
1512493835.8,286046992.5,N
1512493855.7,286046992.7,N
1512493875.5,286046995.9,N
1512493895.3,286046993.9,N
1512493915.2,286046994.3,N
1512493935.9,286046992.2,N
1512493955.7,286046992.0,N
1512493975.5,286046991.0,N
1512493995.4,286046996.3,N
1512494015.2,286046993.7,N
1512494035.0,286046991.5,N
1512494035.9,286046991.5,N
1512494055.8,286046987.3,Y
1512494075.6,286046996.0,P
1512494095.4,286046998.1,N
1512494115.3,286047000.3,N
1512494135.1,286046997.0,N
1512494155.8,286047001.9,N
1512494175.7,286047006.0,N
1512494195.5,286047009.1,N
1512494215.3,286047005.2,N
1512494235.2,286047006.4,N
1512494255.9,286047003.0,N
1512494275.7,286047008.5,N
1512494295.6,286047010.1,N
1512494315.4,286047008.0,N
1512494335.2,286047012.4,N
1512494355.0,286047013.1,N
1512494356.0,286047013.1,N
1512494375.8,286047017.9,Y
1512494395.6,286047012.1,P
1512494415.5,286047014.2,P
1512494435.3,286047012.9,P
1512494455.1,286047011.2,Y
1512494475.9,286047001.6,P
1512494495.7,286046999.8,N
1512494515.5,286047003.6,N
1512494535.3,286047004.2,N
1512494555.2,286047005.0,N
1512494575.0,286047003.4,N
1512494575.9,286047003.4,N
1512494595.7,286047004.3,N
1512494615.6,286047003.6,N
1512494635.4,286047009.0,Y
1512494655.2,286047002.6,P
1512494675.1,286047002.2,P
1512494676.0,286047002.2,N
1512494695.8,286047004.1,Y
1512494715.7,286047002.8,P
1512494735.5,286046999.9,P
1512494755.3,286046996.2,N
1512494775.2,286046991.0,Y
1512494795.9,286046987.2,P
1512494815.7,286046989.9,N
1512494835.5,286046989.5,N
1512494855.4,286046993.0,N
1512494875.2,286046992.7,N
1512494895.0,286046987.3,Y
1512494895.9,286046987.3,P
1512494915.8,286046994.0,N
1512494935.6,286046995.9,N
1512494955.4,286046997.7,N
1512494975.3,286046999.4,N
1512494995.1,286047001.1,N
1512495015.8,286046995.5,N
1512495035.7,286046992.5,N
1512495055.5,286046997.7,N
1512495075.3,286046995.9,N
1512495095.2,286046992.5,N
1512495115.9,286046991.6,N
1512495135.7,286046991.6,N
1512495155.6,286046989.1,Y
1512495175.4,286046988.6,P
1512495195.2,286046990.0,P
1512495215.1,286046985.4,P
1512495216.0,286046985.4,Y
1512495235.8,286046999.8,P
1512495255.6,286047004.2,N
1512495275.5,286046999.7,N
1512495295.3,286047004.5,N
1512495315.1,286047003.3,N
1512495335.9,286047000.0,N
1512495355.7,286047000.1,N
1512495375.5,286047002.3,N
1512495395.3,286046998.7,N
1512495415.2,286047002.1,N
1512495435.0,286047004.6,N
1512495435.9,286047004.6,N
1512495455.7,286047003.1,N
1512495475.6,286047001.5,N
1512495495.4,286047002.3,N
1512495515.2,286046998.9,N
1512495535.1,286046997.1,N
1512495536.0,286046997.1,N
1512495555.8,286047002.6,N
1512495575.6,286046996.5,N
1512495595.5,286046995.2,N
1512495615.3,286046997.9,N
1512495635.1,286046993.4,N
1512495655.9,286046995.2,N
1512495675.7,286046998.0,N
1512495695.5,286046999.3,N
1512495715.3,286047001.1,N
1512495735.2,286047002.1,N
1512495755.0,286047000.6,N
1512495755.9,286047000.6,N
1512495775.7,286046998.0,N
1512495795.6,286046997.5,N
1512495815.4,286046996.6,N
1512495835.2,286046996.9,N
1512495855.1,286046997.6,N
1512495856.0,286046997.6,N
1512495875.8,286046994.5,N
1512495895.6,286046995.0,N
1512495915.5,286046998.6,N
1512495935.3,286047004.0,N
1512495955.1,286047005.3,N
1512495975.9,286047007.6,N
1512495995.7,286047004.9,N
1512496015.5,286047002.8,N
1512496035.3,286047001.9,N
1512496055.2,286047003.1,N
1512496075.0,286047005.3,N
1512496075.9,286047005.3,N
1512496095.7,286047007.1,N
1512496115.6,286047005.1,N
1512496135.4,286047005.7,N
1512496155.2,286047002.0,N
1512496175.1,286047001.2,N
1512496176.0,286047001.2,N
1512496195.8,286047002.3,N
1512496215.6,286046999.3,N
1512496235.5,286046998.5,N
1512496255.3,286047001.0,N
1512496275.1,286046999.1,N
1512496295.9,286046997.4,N
1512496315.7,286046999.9,N
1512496335.5,286047001.5,N
1512496355.4,286047004.3,N
1512496375.2,286046998.3,N
1512496395.0,286046998.0,N
1512496395.9,286046998.0,N
1512496415.7,286046998.6,N
1512496435.6,286047003.5,N
1512496455.4,286047004.4,N
1512496475.2,286046998.9,N
1512496495.1,286046995.2,N
1512496496.0,286046995.2,N
1512496515.8,286046997.9,N
1512496535.6,286046997.8,N
1512496555.5,286046999.2,N
1512496575.3,286046994.0,N
1512496595.1,286046995.7,N
1512496615.9,286046991.9,N
1512496635.7,286046994.7,N
1512496655.5,286046993.5,N
1512496675.4,286046996.9,N
1512496695.2,286046998.3,N
1512496715.0,286047002.1,N
1512496715.9,286047002.1,N
1512496735.8,286047004.1,N
1512496755.6,286047005.0,N
1512496775.4,286047002.9,N
1512496795.3,286047000.4,N
